Richmond, TX

9:22 AM CDT on September 27, 2016 (GMT -0500)
Sugar Land Municipal-Hull

Weather History for KSGR - March, 2014

Change the Weather History Date:

Saturday, March 1, 2014

  Actual Average Record
Temperature  
Mean Temperature 73 °F -  
Max Temperature 80 °F 70 °F 85 °F (1955)
Min Temperature 66 °F 49 °F 30 °F (1962)
Cooling Degree Days 8    
Growing Degree Days 23 (Base 50)    
Moisture  
Dew Point 66 °F    
Average Humidity 84    
Maximum Humidity 93    
Minimum Humidity 60    
Precipitation  
Precipitation 0.00 in - - ()
Sea Level Pressure  
Sea Level Pressure 29.99 in    
Wind  
Wind Speed 10 mph (South)    
Max Wind Speed 18 mph    
Max Gust Speed 25 mph    
Visibility 10 miles    
Events      
Averages and records for this station are not official NWS values.
T = Trace of Precipitation, MM = Missing Value Source: NWS Daily Summary

Daily Weather History Graph

Daily Weather History Graph

Search for Another Location

Airport or City:

Trip Planner

Search our weather history database for the weather conditions in past years. The results will help you decide how hot, cold, wet, or windy it might be!

Date:

Astronomy

Mar. 01, 2014 Rise Set
Actual Time 6:48 AM CST 6:22 PM CST
Civil Twilight 6:24 AM CST 6:45 PM CST
Nautical Twilight 5:56 AM CST 7:13 PM CST
Astronomical Twilight 5:29 AM CST 7:41 PM CST
Moon 6:46 AM CST (3/1) 7:03 PM CST (3/1)
Length of Visible Light 12h 21m
Length of Day
11h 33m
New Moon, 0% of the Moon is Illuminated
Mar 1
New Moon
Mar 8
First Quarter
Mar 16
Full
Mar 23
Last Quarter
Mar 30
New

Hourly Weather History & Observations

Time (CST) Temp. Heat Index Dew Point Humidity Pressure Visibility Wind Dir Wind Speed Gust Speed Precip Events Conditions
12:53 AM 68.0 °F - 64.9 °F 90% 29.94 in 10.0 mi South 11.5 mph - N/A   Overcast
1:00 AM 68.0 °F - 64.9 °F 90% 29.93 in 10.0 mi South 9.2 mph - N/A   Overcast
1:53 AM 68.0 °F - 64.9 °F 90% 29.94 in 10.0 mi South 9.2 mph - N/A   Overcast
2:14 AM 68.0 °F - 64.9 °F 90% 29.94 in 10.0 mi South 9.2 mph - N/A   Overcast
2:53 AM 68.0 °F - 64.9 °F 90% 29.95 in 10.0 mi South 9.2 mph - N/A   Overcast
3:53 AM 68.0 °F - 64.9 °F 90% 29.95 in 10.0 mi South 8.1 mph - N/A   Overcast
4:02 AM 68.0 °F - 64.9 °F 90% 29.94 in 10.0 mi South 6.9 mph - N/A   Overcast
4:22 AM 66.9 °F - 64.9 °F 93% 29.95 in 10.0 mi South 8.1 mph - N/A   Overcast
4:53 AM 66.9 °F - 64.9 °F 93% 29.96 in 10.0 mi South 5.8 mph - N/A   Overcast
5:28 AM 66.9 °F - 64.9 °F 93% 29.96 in 10.0 mi South 6.9 mph - N/A   Overcast
5:53 AM 66.9 °F - 64.9 °F 93% 29.98 in 10.0 mi South 9.2 mph - N/A   Overcast
6:00 AM 66.9 °F - 64.9 °F 93% 29.98 in 10.0 mi South 6.9 mph - N/A   Overcast
6:20 AM 66.9 °F - 64.9 °F 93% 29.98 in 10.0 mi South 6.9 mph - N/A   Overcast
6:53 AM 66.9 °F - 64.9 °F 93% 30.00 in 10.0 mi South 6.9 mph - N/A   Overcast
7:19 AM 66.9 °F - 64.9 °F 93% 30.00 in 9.0 mi South 10.4 mph - N/A   Overcast
7:26 AM 66.9 °F - 64.9 °F 93% 30.00 in 9.0 mi South 8.1 mph - N/A   Overcast
7:53 AM 68.0 °F - 66.0 °F 93% 30.02 in 10.0 mi South 8.1 mph - N/A   Overcast
8:53 AM 70.0 °F - 66.0 °F 87% 30.04 in 10.0 mi South 8.1 mph - N/A   Overcast
9:19 AM 71.1 °F - 66.9 °F 87% 30.04 in 10.0 mi South 9.2 mph - N/A   Overcast
9:53 AM 72.0 °F - 66.9 °F 84% 30.05 in 10.0 mi South 11.5 mph - N/A   Overcast
10:22 AM 75.0 °F - 68.0 °F 79% 30.05 in 10.0 mi South 16.1 mph - N/A   Mostly Cloudy
10:53 AM 77.0 °F - 68.0 °F 74% 30.05 in 10.0 mi South 12.7 mph - N/A   Mostly Cloudy
11:07 AM 75.9 °F - 68.0 °F 76% 30.04 in 10.0 mi South 15.0 mph - N/A   Mostly Cloudy
11:53 AM 77.0 °F - 66.0 °F 69% 30.04 in 10.0 mi SSW 15.0 mph 24.2 mph N/A   Mostly Cloudy
12:53 PM 78.1 °F - 64.9 °F 64% 30.01 in 10.0 mi SSW 16.1 mph - N/A   Mostly Cloudy
1:53 PM 80.1 °F 81.9 °F 64.9 °F 60% 29.99 in 10.0 mi South 16.1 mph - N/A   Overcast
2:53 PM 80.1 °F 82.1 °F 66.0 °F 62% 29.98 in 10.0 mi South 17.3 mph 24.2 mph N/A   Partly Cloudy
3:53 PM 79.0 °F - 64.9 °F 62% 29.97 in 10.0 mi South 18.4 mph 25.3 mph N/A   Overcast
4:53 PM 77.0 °F - 66.9 °F 71% 29.98 in 10.0 mi South 15.0 mph - N/A   Overcast
5:53 PM 75.0 °F - 66.9 °F 76% 29.99 in 10.0 mi SSE 13.8 mph - N/A   Overcast
6:53 PM 73.0 °F - 66.9 °F 81% 30.00 in 10.0 mi SSE 12.7 mph - N/A   Overcast
7:53 PM 72.0 °F - 66.0 °F 81% 30.01 in 10.0 mi SSE 13.8 mph - N/A   Overcast
8:53 PM 71.1 °F - 66.0 °F 84% 30.00 in 10.0 mi SSE 10.4 mph - N/A   Overcast
9:53 PM 71.1 °F - 66.0 °F 84% 30.01 in 10.0 mi SSE 16.1 mph - N/A   Overcast
10:53 PM 71.1 °F - 66.0 °F 84% 30.01 in 10.0 mi SSE 13.8 mph - N/A   Overcast
11:53 PM 70.0 °F - 66.0 °F 87% 30.01 in 10.0 mi SSE 9.2 mph - N/A   Overcast